Location: Gulgong NSW 2852, Australia
(32.2976°S, 149.5548°E)
Time: 10:36:34
(UTC+11:00)

N. Korean satellite - Pass Details

Date: 04 December 2021
Orbit: 447 x 491 km, 97.3° (Epoch: 23 January)

Event Time Altitude Azimuth Distance (km) Brightness Sun altitude
Rises 05:11:37 0° 27° (NNE) 2,463 10.1 -7.4°
Reaches altitude 10° 05:13:42 10° 35° (NE) 1,606 9.3 -7.1°
Maximum altitude 05:16:56 39° 105° (ESE) 715 8.2 -6.5°
Drops below altitude 10° 05:20:16 10° 175° (S) 1,655 9.8 -5.9°
Sets 05:22:26 0° 182° (S) 2,551 10.6 -5.5°
